Погода Шауляй

Погода Шауляй : погода сейчас, прогноз погоды и архив. Всё, что Вы хотите узнать о погоде Шауляй!

Поиск расширенной информации на нашем сайте:

Полезная информация: Подробное описание очистка вентиляции от жировых отложений тут.

Другие новости

Новости СМИ2

Главная страница сайта

Новости сайта

03.07.2017

Напоминаем, что на нашем специализированном сайте Метеоцентр.Азия вы можете получить высокодетализированные автоматические прогнозы погоды по пунктам России, СНГ и мира в авиационном формате (включающие направление и скорость ветра, видимость, явления погоды, количество и форму облачности, нижнюю и верхнюю границу облачности).

Рекомендуем: лимузины дешево москва

Погода Шауляй - сегодня

Время (UTC), дата Ветер
(°,м/с) 
Видим.   Явления Облачность Т
(°С)
Тd
(°С)
f(%) Тe
(°С)
Pmin
(гПа)
dP
(гПа)
Po
(мм)
O2
(г/м3)
Тmin Tmax R s Состояние
почвы
21 23.07.17 тихо () -2{03}  20000 м    3/3 1500 м средняя 
[Sc|Ac lent]
+15.5 +12.4 82 +20  1014.2  -0.7  751  284           
00 24.07.17 тихо () -2{03}  20000 м    4/3 1000 м средняя 
[Sc|Ac trans]
+13.8 +12.1 89 +18  1012.8  -1.5  750  285           
03 24.07.17 тихо () -2{04}  20000 м    10/5 1500 м кучево-дожд., верхняя 
[Cb cap|Cs]
+14.3 +11.9 85 +18  1011.5  -1.2  749  284           
06 24.07.17 090 (В) 1-3{03}  20000 м  в посл. час ливневой дождь  10/3 1500 м кучево-дожд., средняя 
[Cb cap|Ac As]
+15.5 +13.3 87 +23  1010.5  -1  748  283  +13.5    0.0    влажная 
09 24.07.17 090 (В) 3-5{07}  20000 м  в посл. час ливневой дождь  10/6 1500 м кучево-дожд., средняя 
[Cb cap|Ac As]
+17.6 +15.6 88 +28  1010.3  748  280           
12 24.07.17 120 (ЮВ) 3-7{08}  20000 м  {ливн. осадки}  9/8 1140 м средняя 
[Sc|Ac trans]
+20.3 +13.7 66 +27  1009.7  -0.6  748  278      0.4     
15 24.07.17 130 (ЮВ) 3-6{07}  20000 м    5/3 1500 м средняя 
[Cu Sc|Ac trans]
+20.7 +13.4 63 +27  1009.5  -0.1  748  277           
18 24.07.17 130 (ЮВ) 1-4{06}  20000 м    4/1 600 м средняя, верхняя 
[Sc|Ac trans|Ci fib]
+18.9 +14.8 77 +28  1009.2  -0.4  747  279    +21  0.4     
21 24.07.17 тихо () -0{04}  0200 м  туман местами  ясно 
+13.9 +12.6 92 +19  1009.2  -0.2  747  284           
00 25.07.17 тихо () -1{01}  0100 м  туман местами  3/0 верхняя 
[Ci sp]
+12.2 +11.4 95 +15  1008.9  -0.4  747  286           
03 25.07.17 тихо () -1{01}  4000 м  местами туман поземный  5/0 средняя, верхняя 
[Ac lent|Ci sp]
+11.2 +10.6 96 +13  1008.3  -0.6  747  287           
06 25.07.17 100 (В) 1-4{04}  19000 м  {туман}  4/0 средняя, верхняя 
[Ac trans|Ci sp]
+16.9 +14.9 88 +27  1007.4  -0.6  746  280  +10.9        сухая 
09 25.07.17 080 (В) 3-6{08}  20000 м    8/4 1000 м верхняя 
[Cu hum|Cs]
+21.3 +14.7 66 +30  1006.5  -0.8  746  276           
12 25.07.17 110 (В) 4-8{09}  19000 м    8/5 1000 м верхняя 
[Cu hum|Cs]
+22.8 +14.3 59 +30  1005.5  -0.9  745  274           
15 25.07.17 090 (В) 4-8{09}  20000 м    8/4 1000 м верхняя 
[Cu med, cong|Cs]
+22.8 +14.1 58 +30  1004.2  -1.3  744  274           
18 25.07.17 070 (В) 3-5{08}  20000 м    3/0 средняя, верхняя 
[Ac trans|Ci sp]
+21.1 +14.7 67 +29  1003.6  -0.6  743  275    +23.8       
21 25.07.17 030 (СВ) 1-3{06}  20000 м    3/0 верхняя 
[Ci fib]
+16.3 +14 86 +25  1003.3  -0.5  743  280           
00 26.07.17 030 (СВ) 1-4{04}  20000 м    4/3 1320 м верхняя 
[Sc|Ci fib]
+14.8 +13 89 +22  1002  -1.4  742  281           
03 26.07.17 040 (СВ) 1-5{06}  20000 м    9/9 1140 м 
[Sc]
+14.9 +12.9 88 +22  1000.9  -1.1  741  281           
06 26.07.17 040 (СВ) 2-6{07}  20000 м    10/10 330 м 
[St]
+16.3 +14 86 +24  1000.3  -0.5  741  279  +14.7        сухая 
09 26.07.17 050 (СВ) 2-6{07}  19000 м    10/10 270 м 
[St]
+18.3 +15.9 86 +30  999.9  -0.3  741  276           
12 26.07.17 070 (В) 3-7{07}  19000 м  {морось}  10/10 240 м 
[St]
+18.8 +16.9 89 +32  999.7  -0.2  740  275      0.0     
15 26.07.17 070 (В) 1-4{07}  12000 м  в посл. час ливневой дождь  10/8 720 м кучево-дожд., средняя 
[Cb cap|Ac As]
+20.4 +18.1 87 +35  999.1  -0.5  740  273           
18 26.07.17 070 (В) 2-4{07}  20000 м  {ливн. осадки}  10/8 600 м кучево-дожд., средняя 
[Cb cap|Ac As]
+20.4 +17.7 84 +35  999.5  0.4  740  274    +21.6  0.0     
21 26.07.17 100 (В) 1-2{05}  6000 м  ливневой дождь  10/10 300 м кучево-дожд. 
[Cb cap]
+18.4 +17.3 93 +33  1000.5  0.9  741  276           
Время (UTC), дата Ветер
(°,м/с) 
Видим.   Явления Облачность Т
(°С)
Тd
(°С)
f(%) Тe
(°С)
Pmin
(гПа)
dP
(гПа)
Po
(мм)
O2
(г/м3)
Тmin Tmax R s Состояние
почвы

Для получения пояснительной информации подведите курсор к названию столбца.

ПОГОДА Шауляй - архив

Всё, что Вы хотите узнать о погоде Шауляй - удобно и подробно!

Выберите нужную дату (начиная с 1 января 2015* года) и нажмите кнопку "Найти".
Будут отображены архивные сводки погоды по пункту Шауляй, начиная с указанной даты.


Отображать данные в формате CSV (для использования в таблицах Excel)


Внимание! Наш архив погоды предназначен исключительно для личного некоммерческого использования в познавательных целях. Если Вам необходимы официальные справки о состоянии погоды (для производственных, юридических, коммерческих и т.п. целей), обращайтесь в органы Росгидромета.

*Примечание: данная дата относится к архиву по метеостанциям СССР (Россия, СНГ, Балтия).
Архив по метеостанциям Зарубежной Европы и Азии (кроме Китая) хранится 10 дней, по другим регионам земного шара (Китай, Африка, Америка, Австралия, Океания) - 1 день.

Шауляй - район местоположения метеостанции


Название, широта, долгота, высота метеостанции:
Шауляй 55.9°ш. 23.3°д. 107 м над ур. моря [Литва]

Дополнительная информация

В oтличие oт бoльшинства пoгoдных сайтoв мы публикуем пoдрoбную метеoинфoрмацию в детальнoм прoфессиoнальнoм фoрмате.

Характеристики температуры и влажнoсти вoздуха измеряются на высoте 2 м в тени вдали oт зданий и деревьев.
Скoрoсть ветра измеряется на высoте 10 м (на урoвне рoста челoвека скoрoсть ветра ниже в 1.5-2 раза). Если метеoстанция нахoдится в гoрoде или в лесу, тo скoрoсть ветра занижена на 2-4 м/с пo сравнению с oткрытым местoм. Скoрoсть ветра над акватoриями крупных рек и oзёр, а также на вершинах хoлмoв на 2-5 м/с выше, чем в oбычных услoвиях.
Атмoсфернoе давление в разных тoчках местнoсти мoжет значительнo oтличаться oт давления на метеoстанции, в зависимoсти oт услoвий рельефа (при пoдъёме на 10 м давление пoнижается примернo на 1 мм рт.ст.).